Flag for Germany Weather past 2 weeks in Oelde, North Rhine-Westphalia, Germany

Now
43 °F

Passing clouds.


Feels Like: 40 °F
Forecast: 38 / 62 °F
Wind: 5 mph from South

Location: Paderborn / Lippstadt


UV Index: 3 (Moderate)

Visibility: N/A


Pressure: 30.36 "Hg

Humidity: 57%

Dew point: 28 °F

Location of OeldeLocation

Historic Weather in Oelde

°F

Oelde temperature yesterday

Maximum temperature yesterday: 55 °F (at 3:20 PM)
Minimum temperature yesterday: 28 °F (at 4:50 AM)
Average temperature yesterday: 44 °F

Past Weeks' High & Low Weather Summary

 TemperatureHumidityPressure
High72 °F (Apr 3, 3:50 PM)100% (Apr 5, 3:20 AM)30.45 "Hg (Apr 5, 3:20 AM)
Low28 °F (Apr 16, 4:50 AM)29% (Apr 3, 4:20 PM)29.62 "Hg (Apr 3, 6:50 AM)
Average51 °F69%30.02 "Hg
* Reported Apr 1 11:50 PM — Apr 16 11:50 PM, Oelde, Weather by CustomWeather, © 2014

Note: Actual official high and low records may vary slightly from our data, if they occured in-between our weather recording intervals... More about our weather records

Advertising

Historic Weather Conditions — Data for Previous 24 hours

 ConditionsComfort  
Time TempWeatherWind HumidityBarometerVisibility
11:50 PM
Apr 16
43 °FPassing clouds.5 mph57%30.36 "HgN/A
10:50 PM45 °FClear.6 mph53%30.36 "Hg10 mi
10:20 PM45 °FClear.6 mph53%30.36 "Hg10 mi
9:50 PM45 °FClear.6 mph53%30.36 "Hg10 mi
9:20 PM46 °FSunny.3 mph50%30.36 "Hg10 mi
8:50 PM48 °FSunny.5 mph46%30.36 "Hg10 mi
8:20 PM50 °FSunny.3 mph43%30.36 "Hg10 mi
7:50 PM52 °FSunny.7 mph41%30.36 "Hg10 mi
7:20 PM54 °FPassing clouds.5 mph35%30.36 "HgN/A
6:50 PM54 °FPassing clouds.6 mph35%30.36 "HgN/A
6:20 PM54 °FPassing clouds.7 mph38%30.36 "HgN/A
5:50 PM54 °FPassing clouds.5 mph38%30.39 "HgN/A
5:20 PM54 °FSunny.8 mph41%30.39 "Hg10 mi
4:50 PM54 °FPassing clouds.9 mph41%30.39 "HgN/A
4:20 PM54 °FPassing clouds.5 mph38%30.39 "HgN/A
3:50 PM54 °FPassing clouds.7 mph41%30.39 "HgN/A
3:20 PM55 °FSunny.5 mph41%30.42 "Hg10 mi
2:50 PM52 °FPassing clouds.6 mph41%30.42 "HgN/A
2:20 PM52 °FPassing clouds.7 mph41%30.42 "HgN/A
1:50 PM50 °FSunny.7 mph43%30.42 "Hg10 mi
1:20 PM50 °FSunny.8 mph47%30.42 "Hg10 mi
12:50 PM50 °FSunny.8 mph47%30.42 "Hg10 mi
12:20 PM50 °FPassing clouds.8 mph50%30.45 "HgN/A
11:50 AM48 °FPassing clouds.5 mph50%30.45 "HgN/A
11:20 AM48 °FSunny.5 mph54%30.45 "Hg10 mi
10:50 AM45 °FSunny.3 mph61%30.45 "Hg10 mi
10:20 AM45 °FPassing clouds.3 mph61%30.45 "HgN/A
9:50 AM43 °FSunny.2 mph66%30.45 "Hg10 mi
9:20 AM41 °FSunny.2 mph76%30.45 "Hg10 mi
8:50 AM39 °FSunny.1 mph87%30.45 "Hg10 mi
8:20 AM34 °FSunny.1 mph100%30.42 "Hg10 mi
7:50 AM30 °FSunny.3 mph100%30.42 "Hg10 mi
7:20 AM28 °FClear.2 mph100%30.42 "Hg10 mi
6:50 AM28 °FClear.7 mph93%30.42 "Hg10 mi
6:20 AM28 °FClear.3 mph93%30.42 "Hg10 mi
5:50 AM28 °FClear.1 mph100%30.39 "Hg10 mi
5:20 AM28 °FPassing clouds.3 mph100%30.39 "HgN/A
4:50 AM28 °FPassing clouds.5 mph100%30.39 "HgN/A
4:20 AM30 °FClear.5 mph93%30.39 "Hg10 mi
3:50 AM32 °FPassing clouds.3 mph93%30.39 "HgN/A
12:20 AM36 °FPassing clouds.1 mph81%30.36 "HgN/A
Weather by CustomWeather, © 2014

See weather overview